Time,TemperatureF,DewpointF,PressureIn,WindDirection,WindDirectionDegrees,WindSpeedMPH,WindSpeedGustMPH,Humidity,HourlyPrecipIn,Conditions,Clouds,dailyrainin,SoftwareType,DateUTC
2013-05-09 00:10:00,69.9,15.0,30.00,West,271,5.0,5.0,12,0.00,,,0.00,weatherlink.com 1.10,2013-05-09 06:10:00,
2013-05-09 00:25:00,69.6,15.0,30.00,WNW,284,3.0,8.0,12,0.00,,,0.00,weatherlink.com 1.10,2013-05-09 06:25:00,
2013-05-09 00:41:00,68.6,16.0,30.00,WNW,286,4.0,4.0,13,0.00,,,0.00,weatherlink.com 1.10,2013-05-09 06:41:00,
2013-05-09 00:56:00,68.7,16.0,30.00,West,279,3.0,5.0,13,0.00,,,0.00,weatherlink.com 1.10,2013-05-09 06:56:00,
2013-05-09 01:11:00,68.9,16.0,30.00,West,273,3.0,7.0,13,0.00,,,0.00,weatherlink.com 1.10,2013-05-09 07:11:00,
2013-05-09 01:26:00,68.2,15.0,30.00,West,272,5.0,12.0,13,0.00,,,0.00,weatherlink.com 1.10,2013-05-09 07:26:00,
2013-05-09 01:41:00,67.8,17.0,29.99,West,275,5.0,11.0,14,0.00,,,0.00,weatherlink.com 1.10,2013-05-09 07:41:00,
2013-05-09 01:56:00,67.2,18.0,29.99,West,280,5.0,9.0,15,0.00,,,0.00,weatherlink.com 1.10,2013-05-09 07:56:00,
2013-05-09 02:12:00,66.8,18.0,29.99,West,275,3.0,9.0,15,0.00,,,0.00,weatherlink.com 1.10,2013-05-09 08:12:00,
2013-05-09 02:27:00,66.2,17.0,29.98,West,281,4.0,9.0,15,0.00,,,0.00,weatherlink.com 1.10,2013-05-09 08:27:00,
2013-05-09 02:42:00,65.8,18.0,29.99,West,271,10.0,10.0,16,0.00,,,0.00,weatherlink.com 1.10,2013-05-09 08:42:00,
2013-05-09 02:57:00,65.5,19.0,29.99,West,263,4.0,10.0,17,0.00,,,0.00,weatherlink.com 1.10,2013-05-09 08:57:00,
2013-05-09 03:12:00,65.6,20.0,29.99,West,275,3.0,9.0,17,0.00,,,0.00,weatherlink.com 1.10,2013-05-09 09:12:00,
2013-05-09 03:28:00,65.7,20.0,29.99,West,278,1.0,7.0,17,0.00,,,0.00,weatherlink.com 1.10,2013-05-09 09:28:00,
2013-05-09 03:43:00,65.4,21.0,29.98,West,269,6.0,10.0,18,0.00,,,0.00,weatherlink.com 1.10,2013-05-09 09:43:00,
2013-05-09 03:58:00,66.0,21.0,29.98,WNW,289,5.0,13.0,18,0.00,,,0.00,weatherlink.com 1.10,2013-05-09 09:58:00,
2013-05-09 04:13:00,66.0,21.0,29.99,West,281,1.0,9.0,18,0.00,,,0.00,weatherlink.com 1.10,2013-05-09 10:13:00,
2013-05-09 04:28:00,65.2,22.0,30.00,WSW,240,4.0,12.0,19,0.00,,,0.00,weatherlink.com 1.10,2013-05-09 10:28:00,
2013-05-09 04:43:00,65.2,22.0,30.00,West,273,3.0,13.0,19,0.00,,,0.00,weatherlink.com 1.10,2013-05-09 10:43:00,
2013-05-09 04:58:00,64.4,21.0,30.00,West,281,5.0,16.0,19,0.00,,,0.00,weatherlink.com 1.10,2013-05-09 10:58:00,
2013-05-09 05:13:00,64.1,22.0,30.00,WNW,289,5.0,10.0,20,0.00,,,0.00,weatherlink.com 1.10,2013-05-09 11:13:00,
2013-05-09 05:29:00,64.0,23.0,30.01,West,277,4.0,12.0,21,0.00,,,0.00,weatherlink.com 1.10,2013-05-09 11:29:00,
2013-05-09 05:44:00,64.2,25.0,30.01,NW,313,7.0,15.0,22,0.00,,,0.00,weatherlink.com 1.10,2013-05-09 11:44:00,
2013-05-09 05:59:00,64.2,25.0,30.01,West,271,5.0,11.0,22,0.00,,,0.00,weatherlink.com 1.10,2013-05-09 11:59:00,
2013-05-09 06:14:00,64.2,26.0,30.01,West,279,7.0,12.0,23,0.00,,,0.00,weatherlink.com 1.10,2013-05-09 12:14:00,
2013-05-09 06:30:00,64.7,25.0,30.01,West,275,7.0,13.0,22,0.00,,,0.00,weatherlink.com 1.10,2013-05-09 12:30:00,
2013-05-09 06:45:00,65.0,25.0,30.01,West,259,3.0,12.0,22,0.00,,,0.00,weatherlink.com 1.10,2013-05-09 12:45:00,
2013-05-09 07:00:00,65.0,26.0,30.01,WNW,293,1.0,10.0,23,0.00,,,0.00,weatherlink.com 1.10,2013-05-09 13:00:00,
2013-05-09 07:15:00,65.8,26.0,30.01,WSW,238,2.0,12.0,22,0.00,,,0.00,weatherlink.com 1.10,2013-05-09 13:15:00,
2013-05-09 07:31:00,65.9,26.0,30.02,WSW,242,8.0,13.0,22,0.00,,,0.00,weatherlink.com 1.10,2013-05-09 13:31:00,
2013-05-09 07:46:00,66.0,26.0,30.02,West,279,7.0,13.0,22,0.00,,,0.00,weatherlink.com 1.10,2013-05-09 13:46:00,
2013-05-09 08:01:00,66.0,26.0,30.02,West,265,8.0,17.0,22,0.00,,,0.00,weatherlink.com 1.10,2013-05-09 14:01:00,
2013-05-09 08:16:00,66.3,26.0,30.03,WNW,301,6.0,14.0,22,0.00,,,0.00,weatherlink.com 1.10,2013-05-09 14:16:00,
2013-05-09 08:31:00,66.7,27.0,30.03,WSW,251,4.0,13.0,22,0.00,,,0.00,weatherlink.com 1.10,2013-05-09 14:31:00,
2013-05-09 08:46:00,67.6,27.0,30.04,WNW,287,6.0,10.0,22,0.00,,,0.00,weatherlink.com 1.10,2013-05-09 14:46:00,
2013-05-09 09:02:00,67.6,29.0,30.04,West,279,8.0,9.0,24,0.00,,,0.00,weatherlink.com 1.10,2013-05-09 15:02:00,
2013-05-09 09:17:00,69.4,28.0,30.04,NW,305,10.0,12.0,21,0.00,,,0.00,weatherlink.com 1.10,2013-05-09 15:17:00,
2013-05-09 09:32:00,70.6,26.0,30.04,West,277,1.0,12.0,19,0.00,,,0.00,weatherlink.com 1.10,2013-05-09 15:32:00,
2013-05-09 09:47:00,70.9,28.0,30.04,West,271,3.0,10.0,20,0.00,,,0.00,weatherlink.com 1.10,2013-05-09 15:47:00,
2013-05-09 10:02:00,71.8,27.0,30.04,ESE,105,0.0,13.0,19,0.00,,,0.00,weatherlink.com 1.10,2013-05-09 16:02:00,
2013-05-09 10:17:00,73.2,28.0,30.04,NNW,329,9.0,14.0,19,0.00,,,0.00,weatherlink.com 1.10,2013-05-09 16:17:00,
2013-05-09 10:32:00,73.5,27.0,30.04,NW,314,6.0,10.0,18,0.00,,,0.00,weatherlink.com 1.10,2013-05-09 16:32:00,
2013-05-09 10:48:00,74.2,27.0,30.04,WNW,288,8.0,16.0,17,0.00,,,0.00,weatherlink.com 1.10,2013-05-09 16:48:00,
2013-05-09 11:03:00,75.0,26.0,30.04,West,269,5.0,13.0,16,0.00,,,0.00,weatherlink.com 1.10,2013-05-09 17:03:00,
2013-05-09 11:18:00,75.3,26.0,30.03,West,267,1.0,11.0,16,0.00,,,0.00,weatherlink.com 1.10,2013-05-09 17:18:00,
2013-05-09 11:33:00,75.7,26.0,30.02,WNW,296,9.0,14.0,16,0.00,,,0.00,weatherlink.com 1.10,2013-05-09 17:33:00,
2013-05-09 11:48:00,76.6,24.0,30.02,SSW,211,7.0,14.0,14,0.00,,,0.00,weatherlink.com 1.10,2013-05-09 17:48:00,
2013-05-09 12:04:00,77.1,24.0,30.02,WNW,285,6.0,13.0,14,0.00,,,0.00,weatherlink.com 1.10,2013-05-09 18:04:00,
2013-05-09 12:19:00,78.7,25.0,30.02,SSE,148,0.0,15.0,14,0.00,,,0.00,weatherlink.com 1.10,2013-05-09 18:19:00,
2013-05-09 12:34:00,80.5,23.0,30.01,NE,41,4.0,9.0,12,0.00,,,0.00,weatherlink.com 1.10,2013-05-09 18:34:00,
2013-05-09 12:49:00,79.9,23.0,30.00,NW,304,5.0,13.0,12,0.00,,,0.00,weatherlink.com 1.10,2013-05-09 18:49:00,
2013-05-09 13:04:00,79.9,21.0,30.00,SSW,200,5.0,16.0,11,0.00,,,0.00,weatherlink.com 1.10,2013-05-09 19:04:00,
2013-05-09 13:20:00,81.7,22.0,30.00,SW,232,8.0,13.0,11,0.00,,,0.00,weatherlink.com 1.10,2013-05-09 19:20:00,
2013-05-09 13:35:00,81.1,19.0,29.99,SSE,164,5.0,7.0,10,0.00,,,0.00,weatherlink.com 1.10,2013-05-09 19:35:00,
2013-05-09 13:50:00,82.1,18.0,29.99,SW,217,10.0,17.0,9,0.00,,,0.00,weatherlink.com 1.10,2013-05-09 19:50:00,
2013-05-09 14:06:00,82.0,20.0,29.99,NNW,345,11.0,27.0,10,0.00,,,0.00,weatherlink.com 1.10,2013-05-09 20:06:00,
2013-05-09 14:21:00,82.2,22.0,29.98,SW,215,10.0,20.0,11,0.00,,,0.00,weatherlink.com 1.10,2013-05-09 20:21:00,
2013-05-09 14:37:00,82.5,20.0,29.97,SSW,198,6.0,15.0,10,0.00,,,0.00,weatherlink.com 1.10,2013-05-09 20:37:00,
2013-05-09 14:52:00,81.2,22.0,29.96,SSW,195,5.0,14.0,11,0.00,,,0.00,weatherlink.com 1.10,2013-05-09 20:52:00,
2013-05-09 15:07:00,81.9,22.0,29.96,West,273,7.0,15.0,11,0.00,,,0.00,weatherlink.com 1.10,2013-05-09 21:07:00,
2013-05-09 15:22:00,80.9,21.0,29.95,West,263,6.0,19.0,11,0.00,,,0.00,weatherlink.com 1.10,2013-05-09 21:22:00,
2013-05-09 15:37:00,81.8,22.0,29.94,WNW,287,4.0,16.0,11,0.00,,,0.00,weatherlink.com 1.10,2013-05-09 21:37:00,
2013-05-09 15:52:00,81.2,22.0,29.94,SSW,209,4.0,17.0,11,0.00,,,0.00,weatherlink.com 1.10,2013-05-09 21:52:00,
2013-05-09 16:07:00,80.5,23.0,29.94,NW,326,7.0,14.0,12,0.00,,,0.00,weatherlink.com 1.10,2013-05-09 22:07:00,
2013-05-09 16:23:00,79.4,22.0,29.94,NNW,331,5.0,15.0,12,0.00,,,0.00,weatherlink.com 1.10,2013-05-09 22:23:00,
2013-05-09 16:38:00,82.8,21.0,29.94,West,281,3.0,15.0,10,0.00,,,0.00,weatherlink.com 1.10,2013-05-09 22:38:00,
2013-05-09 16:53:00,81.3,22.0,29.94,NW,305,6.0,15.0,11,0.00,,,0.00,weatherlink.com 1.10,2013-05-09 22:53:00,
2013-05-09 17:08:00,81.5,20.0,29.94,WNW,284,10.0,20.0,10,0.00,,,0.00,weatherlink.com 1.10,2013-05-09 23:08:00,
2013-05-09 17:23:00,81.3,22.0,29.93,NNW,328,5.0,14.0,11,0.00,,,0.00,weatherlink.com 1.10,2013-05-09 23:23:00,
2013-05-09 17:38:00,81.4,22.0,29.93,West,277,6.0,15.0,11,0.00,,,0.00,weatherlink.com 1.10,2013-05-09 23:38:00,
2013-05-09 17:54:00,79.8,21.0,29.93,West,267,5.0,13.0,11,0.00,,,0.00,weatherlink.com 1.10,2013-05-09 23:54:00,
2013-05-09 18:09:00,80.8,21.0,29.93,WNW,295,2.0,10.0,11,0.00,,,0.00,weatherlink.com 1.10,2013-05-10 00:09:00,
2013-05-09 18:24:00,79.5,20.0,29.92,NNW,329,21.0,21.0,11,0.00,,,0.00,weatherlink.com 1.10,2013-05-10 00:24:00,
2013-05-09 18:39:00,79.2,20.0,29.93,NW,319,0.0,10.0,11,0.00,,,0.00,weatherlink.com 1.10,2013-05-10 00:39:00,
2013-05-09 18:54:00,78.4,19.0,29.93,South,173,2.0,9.0,11,0.00,,,0.00,weatherlink.com 1.10,2013-05-10 00:54:00,
2013-05-09 19:09:00,77.7,21.0,29.93,West,277,2.0,7.0,12,0.00,,,0.00,weatherlink.com 1.10,2013-05-10 01:09:00,
2013-05-09 19:25:00,76.6,20.0,29.93,NW,312,4.0,9.0,12,0.00,,,0.00,weatherlink.com 1.10,2013-05-10 01:25:00,
2013-05-09 19:40:00,75.8,20.0,29.94,NW,306,4.0,10.0,12,0.00,,,0.00,weatherlink.com 1.10,2013-05-10 01:40:00,
2013-05-09 19:55:00,75.0,23.0,29.94,NNE,23,4.0,8.0,14,0.00,,,0.00,weatherlink.com 1.10,2013-05-10 01:55:00,
2013-05-09 20:11:00,73.9,23.0,29.95,North,360,0.0,3.0,15,0.00,,,0.00,weatherlink.com 1.10,2013-05-10 02:11:00,
2013-05-09 20:26:00,73.4,23.0,29.95,North,360,1.0,5.0,15,0.00,,,0.00,weatherlink.com 1.10,2013-05-10 02:26:00,
2013-05-09 20:41:00,72.8,22.0,29.95,WNW,302,4.0,6.0,15,0.00,,,0.00,weatherlink.com 1.10,2013-05-10 02:41:00,
2013-05-09 20:56:00,71.3,23.0,29.95,WNW,302,0.0,3.0,16,0.00,,,0.00,weatherlink.com 1.10,2013-05-10 02:56:00,
2013-05-09 21:11:00,69.8,24.0,29.96,WNW,302,0.0,2.0,18,0.00,,,0.00,weatherlink.com 1.10,2013-05-10 03:11:00,
2013-05-09 21:26:00,69.3,23.0,29.97,WNW,302,0.0,2.0,17,0.00,,,0.00,weatherlink.com 1.10,2013-05-10 03:26:00,
2013-05-09 21:41:00,68.5,22.0,29.97,WNW,292,4.0,5.0,17,0.00,,,0.00,weatherlink.com 1.10,2013-05-10 03:41:00,
2013-05-09 21:56:00,69.7,21.0,29.98,WNW,299,3.0,5.0,16,0.00,,,0.00,weatherlink.com 1.10,2013-05-10 03:56:00,
2013-05-09 22:12:00,70.6,22.0,29.98,NW,304,2.0,8.0,16,0.00,,,0.00,weatherlink.com 1.10,2013-05-10 04:12:00,
2013-05-09 22:27:00,70.6,22.0,29.99,WNW,295,2.0,6.0,16,0.00,,,0.00,weatherlink.com 1.10,2013-05-10 04:27:00,
2013-05-09 22:42:00,69.8,23.0,29.99,WNW,300,2.0,3.0,17,0.00,,,0.00,weatherlink.com 1.10,2013-05-10 04:42:00,
2013-05-09 22:57:00,69.8,23.0,29.99,WNW,286,2.0,4.0,17,0.00,,,0.00,weatherlink.com 1.10,2013-05-10 04:57:00,
2013-05-09 23:12:00,70.3,23.0,29.99,WNW,289,3.0,4.0,17,0.00,,,0.00,weatherlink.com 1.10,2013-05-10 05:12:00,
2013-05-09 23:27:00,71.3,23.0,29.99,WNW,289,3.0,7.0,16,0.00,,,0.00,weatherlink.com 1.10,2013-05-10 05:27:00,
2013-05-09 23:43:00,72.1,20.0,29.99,West,273,4.0,16.0,14,0.00,,,0.00,weatherlink.com 1.10,2013-05-10 05:43:00,
2013-05-09 23:58:00,72.3,20.0,29.99,WNW,291,4.0,11.0,14,0.00,,,0.00,weatherlink.com 1.10,2013-05-10 05:58:00,